|  Orbital Elements
Epoch 2023 Sept. 13.0 TT = JDT 2460200.5
T 2023 July 1.10941 TT                                  Rudenko
q   1.0266368            (2000.0)            P               Q
n   0.01158469     Peri.  105.89823     +0.06333682     +0.98427290
a  19.3440110      Node   164.57384     -0.97143018     +0.02293380
e   0.9469274      Incl.   38.31404     +0.22871784     -0.17515965
P  85.1
>From 3051 observations 2022 Dec. 25-2023 Nov. 15, mean residual 0".6.
 
 |